• In Russia
  • List of Countries
  • For 7 days
  • Water Temperature
  • Satellite Maps
  • Weather Map
  • Weather Widgets
  • user-avatar
    Login

    Hourly Weather Ravda

    Today, 18 July, Wednesday

    Time Temperature Precipitation Wind Pressure Humidity
    00:00 +23°C° 0 mm 4 mps 753 mmHg 70%
    01:00 +22°C° 0 mm 4 mps 753 mmHg 72%
    02:00 +22°C° 0 mm 5 mps 753 mmHg 73%
    03:00 +21°C° 0 mm 5 mps 753 mmHg 75%
    04:00 +21°C° 0 mm 5 mps 753 mmHg 76%
    05:00 +20°C° 0 mm 5 mps 753 mmHg 78%
    06:00 +22°C° 0 mm 5 mps 753 mmHg 71%
    07:00 +25°C° 0 mm 5 mps 753 mmHg 65%
    08:00 +27°C° 0 mm 5 mps 753 mmHg 58%
    09:00 +28°C° 0 mm 5 mps 753 mmHg 52%
    10:00 +30°C° 0 mm 4 mps 753 mmHg 46%
    11:00 +33°C° 0 mm 4 mps 753 mmHg 40%
    12:00 +33°C° 0 mm 4 mps 753 mmHg 39%
    13:00 +33°C° 0 mm 4 mps 753 mmHg 38%
    14:00 +33°C° 0 mm 4 mps 752 mmHg 38%
    15:00 +32°C° 0 mm 5 mps 752 mmHg 40%
    16:00 +30°C° 0 mm 5 mps 753 mmHg 42%
    17:00 +30°C° 0 mm 5 mps 753 mmHg 45%
    18:00 +28°C° 0 mm 5 mps 753 mmHg 51%
    19:00 +26°C° 0 mm 6 mps 753 mmHg 56%
    20:00 +24°C° 0 mm 6 mps 753 mmHg 62%
    21:00 +23°C° 0 mm 6 mps 753 mmHg 65%
    22:00 +23°C° 0 mm 6 mps 753 mmHg 68%
    23:00 +22°C° 0 mm 7 mps 753 mmHg 72%

    Tomorrow, 19 July, Thursday

    Time Temperature Precipitation Wind Pressure Humidity
    00:00 +22°C° 0.1 mm 7 mps 753 mmHg 73%
    01:00 +21°C° 0.1 mm 7 mps 753 mmHg 75%
    02:00 +21°C° 0.1 mm 7 mps 753 mmHg 76%
    03:00 +20°C° 0 mm 7 mps 753 mmHg 77%
    04:00 +20°C° 0 mm 6 mps 752 mmHg 78%
    05:00 +20°C° 0 mm 6 mps 752 mmHg 79%
    06:00 +21°C° 0 mm 6 mps 753 mmHg 74%
    07:00 +22°C° 0 mm 7 mps 753 mmHg 69%
    08:00 +24°C° 0 mm 7 mps 753 mmHg 64%
    09:00 +24°C° 0 mm 7 mps 753 mmHg 64%
    10:00 +26°C° 0 mm 6 mps 753 mmHg 64%
    11:00 +27°C° 0 mm 6 mps 753 mmHg 64%
    12:00 +27°C° 0.2 mm 5 mps 753 mmHg 62%
    13:00 +28°C° 0.2 mm 5 mps 753 mmHg 59%
    14:00 +29°C° 0.2 mm 4 mps 753 mmHg 57%
    15:00 +29°C° 0.3 mm 4 mps 753 mmHg 59%
    16:00 +28°C° 0.3 mm 4 mps 753 mmHg 61%
    17:00 +28°C° 0.3 mm 3 mps 753 mmHg 64%
    18:00 +27°C° 0.4 mm 3 mps 754 mmHg 70%
    19:00 +25°C° 0.4 mm 3 mps 754 mmHg 76%
    20:00 +24°C° 0.4 mm 2 mps 754 mmHg 82%
    21:00 +22°C° 0.2 mm 3 mps 754 mmHg 84%
    22:00 +22°C° 0.2 mm 3 mps 755 mmHg 86%
    23:00 +22°C° 0.2 mm 4 mps 755 mmHg 89%

    Day after tomorrow, 20 July, Friday

    Time Temperature Precipitation Wind Pressure Humidity
    00:00 +21°C° 0.2 mm 5 mps 755 mmHg 89%
    01:00 +21°C° 0.2 mm 6 mps 755 mmHg 89%
    02:00 +21°C° 0.2 mm 6 mps 755 mmHg 89%
    03:00 +20°C° 0 mm 6 mps 755 mmHg 89%
    04:00 +20°C° 0 mm 6 mps 755 mmHg 90%
    05:00 +20°C° 0 mm 6 mps 755 mmHg 91%
    06:00 +21°C° 0 mm 6 mps 755 mmHg 84%
    07:00 +23°C° 0 mm 6 mps 756 mmHg 77%
    08:00 +26°C° 0 mm 5 mps 756 mmHg 70%
    09:00 +28°C° 0 mm 5 mps 756 mmHg 63%
    10:00 +30°C° 0 mm 5 mps 756 mmHg 57%
    11:00 +32°C° 0 mm 4 mps 756 mmHg 50%
    12:00 +33°C° 0.1 mm 4 mps 756 mmHg 49%
    13:00 +33°C° 0.1 mm 3 mps 756 mmHg 48%
    14:00 +34°C° 0.1 mm 3 mps 756 mmHg 47%
    15:00 +32°C° 0.2 mm 2 mps 755 mmHg 50%
    16:00 +32°C° 0.2 mm 2 mps 755 mmHg 54%
    17:00 +31°C° 0.2 mm 2 mps 755 mmHg 57%
    18:00 +29°C° 0.5 mm 2 mps 756 mmHg 63%
    19:00 +28°C° 0.5 mm 2 mps 756 mmHg 69%
    20:00 +26°C° 0.5 mm 1 mps 756 mmHg 76%
    21:00 +26°C° 0.1 mm 2 mps 756 mmHg 77%
    22:00 +25°C° 0.1 mm 2 mps 756 mmHg 79%
    23:00 +25°C° 0.1 mm 2 mps 757 mmHg 81%

    21 July, Saturday

    Time Temperature Precipitation Wind Pressure Humidity
    00:00 +24°C° 0.2 mm 3 mps 757 mmHg 81%
    01:00 +24°C° 0.2 mm 3 mps 757 mmHg 82%
    02:00 +22°C° 0.2 mm 3 mps 757 mmHg 82%
    03:00 +22°C° 0 mm 4 mps 757 mmHg 82%
    04:00 +21°C° 0 mm 4 mps 757 mmHg 82%
    05:00 +21°C° 0 mm 4 mps 757 mmHg 82%
    06:00 +23°C° 0 mm 4 mps 757 mmHg 74%
    07:00 +26°C° 0 mm 4 mps 757 mmHg 67%
    08:00 +28°C° 0 mm 4 mps 757 mmHg 60%
    09:00 +29°C° 0 mm 4 mps 757 mmHg 55%
    10:00 +31°C° 0 mm 3 mps 757 mmHg 50%
    11:00 +33°C° 0 mm 3 mps 757 mmHg 45%
    12:00 +34°C° 0 mm 3 mps 757 mmHg 44%
    13:00 +34°C° 0 mm 3 mps 757 mmHg 42%
    14:00 +35°C° 0 mm 3 mps 757 mmHg 41%
    15:00 +34°C° 0 mm 3 mps 757 mmHg 43%
    16:00 +34°C° 0 mm 3 mps 757 mmHg 45%
    17:00 +33°C° 0 mm 3 mps 756 mmHg 47%
    18:00 +31°C° 0 mm 2 mps 757 mmHg 55%
    19:00 +29°C° 0 mm 2 mps 757 mmHg 63%
    20:00 +27°C° 0 mm 2 mps 757 mmHg 71%
    21:00 +26°C° 0 mm 1 mps 757 mmHg 75%
    22:00 +25°C° 0 mm 1 mps 757 mmHg 78%
    23:00 +23°C° 0 mm 0 mps 757 mmHg 82%

    22 July, Sunday

    Time Temperature Precipitation Wind Pressure Humidity
    00:00 +22°C° 0 mm 0 mps 757 mmHg 83%
    01:00 +24°C° 0 mm 1 mps 757 mmHg 84%
    02:00 +24°C° 0 mm 1 mps 757 mmHg 85%
    03:00 +24°C° 0.1 mm 1 mps 757 mmHg 85%
    04:00 +23°C° 0.1 mm 1 mps 757 mmHg 85%
    05:00 +23°C° 0.1 mm 1 mps 757 mmHg 85%
    06:00 +25°C° 0.1 mm 1 mps 757 mmHg 76%
    07:00 +27°C° 0.1 mm 1 mps 757 mmHg 68%
    08:00 +30°C° 0.1 mm 1 mps 757 mmHg 59%
    09:00 +31°C° 0 mm 1 mps 757 mmHg 52%
    10:00 +34°C° 0 mm 2 mps 757 mmHg 46%
    11:00 +36°C° 0 mm 2 mps 756 mmHg 39%
    12:00 +36°C° 0 mm 2 mps 756 mmHg 38%
    13:00 +36°C° 0 mm 3 mps 756 mmHg 37%
    14:00 +36°C° 0 mm 4 mps 756 mmHg 36%
    15:00 +35°C° 0 mm 4 mps 755 mmHg 39%
    16:00 +35°C° 0 mm 4 mps 755 mmHg 41%
    17:00 +35°C° 0 mm 4 mps 755 mmHg 44%
    18:00 +32°C° 0 mm 4 mps 755 mmHg 54%
    19:00 +29°C° 0 mm 3 mps 755 mmHg 64%
    20:00 +27°C° 0 mm 3 mps 755 mmHg 74%
    21:00 +26°C° 0 mm 3 mps 755 mmHg 77%
    22:00 +25°C° 0 mm 3 mps 755 mmHg 80%
    23:00 +25°C° 0 mm 3 mps 755 mmHg 83%

    23 July, Monday

    Time Temperature Precipitation Wind Pressure Humidity
    00:00 +24°C° 0 mm 2 mps 755 mmHg 83%
    01:00 +24°C° 0 mm 2 mps 755 mmHg 83%
    02:00 +24°C° 0 mm 2 mps 754 mmHg 84%
    03:00 +24°C° 0 mm 2 mps 754 mmHg 84%
    04:00 +24°C° 0 mm 2 mps 754 mmHg 84%
    05:00 +23°C° 0 mm 2 mps 754 mmHg 84%
    06:00 +25°C° 0 mm 3 mps 754 mmHg 76%
    07:00 +28°C° 0 mm 3 mps 754 mmHg 68%
    08:00 +30°C° 0 mm 4 mps 754 mmHg 60%
    09:00 +32°C° 0 mm 4 mps 753 mmHg 53%
    10:00 +34°C° 0 mm 4 mps 753 mmHg 47%
    11:00 +36°C° 0 mm 5 mps 753 mmHg 40%
    12:00 +36°C° 0 mm 5 mps 753 mmHg 41%
    13:00 +36°C° 0 mm 5 mps 753 mmHg 42%
    14:00 +36°C° 0 mm 6 mps 753 mmHg 42%
    15:00 +34°C° 0.4 mm 5 mps 753 mmHg 50%
    16:00 +32°C° 0.4 mm 5 mps 752 mmHg 57%
    17:00 +29°C° 0.4 mm 5 mps 752 mmHg 65%
    18:00 +28°C° 0.4 mm 5 mps 753 mmHg 72%
    19:00 +27°C° 0.4 mm 4 mps 753 mmHg 79%
    20:00 +25°C° 0.4 mm 4 mps 753 mmHg 86%
    21:00 +25°C° 0.4 mm 4 mps 753 mmHg 87%
    22:00 +25°C° 0.4 mm 4 mps 753 mmHg 88%
    23:00 +25°C° 0.4 mm 4 mps 754 mmHg 89%
    Show more